20060416,000009,1295981,33.720648,-123.636085,16.9,15.171,33.039,41.082,2365.93,0.0, NaN,15.123,15.076, NaN,24.357,   NaN,-40.00,1017.36,81.64,14.26,314.8,319.4,2.4,2.2,242.6,246.8,2.2,2.0,4196.5, NaN,13.0,288.1,254.7,1145145609,1145145609,2,0.5,000009,000009,288.1,33.720580,-123.635960,-0.06,NaN,NaN,15.382, NaN,NaN,470.7, NaN, NaN
20060416,000039,1296011,33.720665,-123.636080,17.1,15.171,33.040,41.084,2386.17,0.0, NaN,15.121,15.076, NaN,24.358,   NaN,-40.00,1017.29,81.67,14.28,317.1,322.6,2.6,2.4,239.8,245.0,2.4,2.1,4276.5, NaN,13.0,287.1,1.8,1145145639,1145145639,2,0.5,000039,000039,287.1,33.720588,-123.635958,-0.03,NaN,NaN,15.382, NaN,NaN,451.5, NaN, NaN
20060416,000109,1296040,33.720656,-123.636086,17.0,15.170,33.038,41.080,2260.56,0.0, NaN,15.121,15.074, NaN,24.356,   NaN,-40.00,1017.36,80.92,14.26,325.7,324.8,2.7,2.6,246.3,244.9,2.3,2.2,4227.5, NaN,14.0,290.7,20.3,1145145669,1145145669,2,0.2,000069,000069,290.7,33.720580,-123.635971,0.05,NaN,NaN,15.381, NaN,NaN,440.1, NaN, NaN
20060416,000139,1296070,33.720665,-123.636083,17.1,15.171,33.037,41.080,2169.80,0.0, NaN,15.120,15.074, NaN,24.355,   NaN,-40.00,1017.34,80.72,14.23,327.1,323.8,2.6,2.6,250.6,246.0,2.1,2.2,NaN, NaN,14.0,295.6,33.3,1145145699,1145145699,2,1.3,000099,000099,295.6,33.720578,-123.635975,0.03,NaN,NaN,15.382, NaN,NaN,440.3, NaN, NaN
20060416,000209,1296101,33.720663,-123.636076,17.1,15.172,33.036,41.080,2025.30,0.0, NaN,15.120,15.072, NaN,24.354,   NaN,-40.00,1017.32,80.79,14.23,323.6,321.2,2.4,2.3,251.4,247.2,2.0,2.0,NaN, NaN,14.0,296.3,16.5,1145145729,1145145729,2,0.3,000129,000129,296.3,33.720581,-123.635975,0.12,NaN,NaN,15.383, NaN,NaN,440.0, NaN, NaN
20060416,000239,1296131,33.720695,-123.636096,16.9,15.174,33.032,41.078,2011.14,0.0, NaN,15.120,15.071, NaN,24.351,   NaN,-40.00,1017.36,81.26,14.25,321.9,323.2,2.6,2.5,252.2,252.4,2.4,2.2,NaN, NaN,13.0,290.6,23.7,1145145759,1145145759,2,0.3,000159,000159,290.6,33.720613,-123.635983,0.23,NaN,NaN,15.385, NaN,NaN,430.4, NaN, NaN
20060416,000309,1296161,33.720701,-123.636130,17.2,15.176,33.035,41.082,1860.69,0.0, NaN,15.121,15.074, NaN,24.352,   NaN,-40.00,1017.35,81.13,14.23,326.3,326.5,2.9,3.0,254.5,254.8,2.7,2.8,NaN, NaN,14.0,285.1,240.4,1145145789,1145145789,2,0.2,000189,000189,285.1,33.720631,-123.636001,0.33,NaN,NaN,15.387, NaN,NaN,408.1, NaN, NaN
20060416,000339,1296191,33.720723,-123.636130,16.8,15.171,33.040,41.083,2118.71,0.0, NaN,15.121,15.077, NaN,24.357,   NaN,-40.00,1017.42,81.03,14.19,331.1,329.5,2.8,3.1,253.5,252.1,2.6,2.8,NaN, NaN,14.0,282.3,0.3,1145145819,1145145819,2,0.4,000219,000219,282.0,33.720655,-123.636003,-0.01,NaN,NaN,15.382, NaN,NaN,389.0, NaN, NaN
20060416,000409,1296220,33.720731,-123.636120,17.1,15.173,33.037,41.082,2480.98,0.0, NaN,15.125,15.080, NaN,24.355,   NaN,-40.00,1017.36,81.14,14.19,330.6,331.2,2.9,2.9,248.3,248.8,2.5,2.5,NaN, NaN,14.0,283.9,346.5,1145145849,1145145849,2,0.9,000249,000249,283.9,33.720666,-123.635996,-0.09,NaN,NaN,15.384, NaN,NaN,381.5, NaN, NaN
20060416,000439,1296250,33.720706,-123.636105,16.7,15.182,33.029,41.081,2521.28,0.0, NaN,15.127,15.080, NaN,24.346,   NaN,-40.00,1017.39,81.15,14.22,330.8,333.1,2.9,2.7,248.6,250.2,2.5,2.2,NaN, NaN,14.0,288.0,204.8,1145145879,1145145879,2,0.5,000279,000279,288.0,33.720638,-123.635993,-0.02,NaN,NaN,15.393, NaN,NaN,380.4, NaN, NaN
20060416,000509,1296281,33.720710,-123.636085,17.0,15.184,33.033,41.088,2545.23,0.0, NaN,15.126,15.078, NaN,24.349,   NaN,-40.00,1017.34,81.13,14.24,330.8,332.7,2.7,2.6,252.8,254.5,2.3,2.2,NaN, NaN,14.0,292.3,205.5,1145145909,1145145909,2,1.1,000309,000309,292.3,33.720625,-123.635976,-0.11,NaN,NaN,15.395, NaN,NaN,380.0, NaN, NaN
20060416,000539,1296311,33.720708,-123.636051,16.9,15.188,33.034,41.092,2533.65,0.0, NaN,15.124,15.076, NaN,24.349,   NaN,-40.00,1017.29,81.09,14.29,320.6,325.4,2.6,2.4,245.9,250.8,2.2,2.1,NaN, NaN,14.0,296.8,176.8,1145145939,1145145939,2,0.4,000339,000339,296.8,33.720623,-123.635955,-0.11,NaN,NaN,15.399, NaN,NaN,378.6, NaN, NaN
20060416,000609,1296341,33.720710,-123.636016,17.0,15.188,33.036,41.095,2140.66,0.0, NaN,15.124,15.077, NaN,24.351,   NaN,-40.00,1017.42,80.97,14.26,312.4,319.8,2.6,2.3,240.5,247.8,2.3,2.0,NaN, NaN,14.0,296.3,83.1,1145145969,1145145969,2,0.7,000369,000369,296.3,33.720631,-123.635923,-0.30,NaN,NaN,15.399, NaN,NaN,358.6, NaN, NaN
20060416,000639,1296370,33.720715,-123.635991,16.8,15.185,33.038,41.094,1948.19,0.0, NaN,15.123,15.076, NaN,24.353,   NaN,-40.00,1017.37,81.15,14.27,315.3,323.8,2.3,2.2,243.6,252.7,2.0,1.9,NaN, NaN,14.0,294.5,60.4,1145145999,1145145999,2,0.3,000399,000399,294.5,33.720640,-123.635893,-0.24,NaN,NaN,15.396, NaN,NaN,346.6, NaN, NaN
20060416,000709,1296400,33.720706,-123.635966,16.8,15.181,33.039,41.091,2245.39,0.0, NaN,15.121,15.074, NaN,24.354,   NaN,-40.00,1017.33,80.98,14.29,322.6,328.1,2.3,2.1,249.3,254.7,1.9,1.7,NaN, NaN,14.0,294.0,187.5,1145146029,1145146029,2,0.4,000429,000429,294.0,33.720633,-123.635866,-0.24,NaN,NaN,15.392, NaN,NaN,328.2, NaN, NaN
20060416,000739,1296431,33.720728,-123.635951,16.9,15.180,33.039,41.090,2151.39,0.0, NaN,15.121,15.070, NaN,24.354,   NaN,-40.00,1017.32,81.02,14.30,323.7,325.6,2.5,2.2,250.6,251.8,2.2,1.9,NaN, NaN,14.0,289.8,50.3,1145146059,1145146059,2,0.3,000459,000459,289.8,33.720660,-123.635843,-0.03,NaN,NaN,15.391, NaN,NaN,320.3, NaN, NaN
20060416,000809,1296461,33.720743,-123.635971,16.9,15.176,33.041,41.089,2330.53,0.0, NaN,15.119,15.068, NaN,24.357,   NaN,-40.00,1017.31,81.20,14.32,314.8,319.3,2.6,2.3,238.8,243.0,2.4,2.1,NaN, NaN,14.0,282.0,54.9,1145146089,1145146089,2,0.3,000489,000489,282.0,33.720691,-123.635841,0.22,NaN,NaN,15.387, NaN,NaN,319.5, NaN, NaN
20060416,000839,1296491,33.720743,-123.635951,16.9,15.178,33.035,41.085,2426.27,0.0, NaN,15.119,15.070, NaN,24.352,   NaN,-40.00,1017.31,81.20,14.35,313.8,321.6,2.4,2.3,230.1,238.4,2.2,2.0,NaN, NaN,14.0,276.6,57.9,1145146119,1145146119,2,0.3,000519,000519,276.6,33.720706,-123.635816,-0.06,NaN,NaN,15.389, NaN,NaN,316.8, NaN, NaN
20060416,000909,1296521,33.720751,-123.635950,16.8,15.174,33.039,41.085,2412.19,0.0, NaN,15.122,15.076, NaN,24.356,   NaN,-40.00,1017.29,81.05,14.36,323.1,326.0,2.2,2.3,235.7,239.2,2.0,2.0,NaN, NaN,13.0,279.1,174.9,1145146149,1145146149,2,1.5,000549,000549,279.1,33.720693,-123.635818,0.18,NaN,NaN,15.385, NaN,NaN,298.3, NaN, NaN
20060416,000939,1296550,33.720736,-123.635936,16.8,15.169,33.040,41.081,2384.83,0.0, NaN,15.127,15.080, NaN,24.358,   NaN,-40.00,1017.37,80.85,14.34,319.5,324.2,2.3,2.1,231.9,235.8,2.0,1.8,NaN, NaN,13.0,285.5,190.0,1145146179,1145146179,2,1.0,000579,000579,285.5,33.720666,-123.635815,-0.03,NaN,NaN,15.380, NaN,NaN,280.8, NaN, NaN
20060416,001009,1296580,33.720731,-123.635906,17.0,15.171,33.035,41.078,2391.15,0.0, NaN,15.129,15.082, NaN,24.354,   NaN,-40.00,1017.35,80.73,14.34,303.1,313.1,2.3,1.9,216.5,225.6,2.1,1.6,NaN, NaN,13.0,293.6,36.1,1145146209,1145146209,2,0.8,000609,000609,293.6,33.720641,-123.635796,-0.17,NaN,NaN,15.382, NaN,NaN,270.8, NaN, NaN
20060416,001039,1296611,33.720736,-123.635893,16.7,15.183,33.031,41.084,2376.47,0.0, NaN,15.132,15.084, NaN,24.348,   NaN,-40.00,1017.31,80.96,14.37,296.0,296.7,2.2,1.8,216.4,214.6,2.0,1.6,NaN, NaN,14.0,301.3,177.8,1145146239,1145146239,2,0.7,000639,000639,301.3,33.720610,-123.635795,-0.20,NaN,NaN,15.394, NaN,NaN,269.6, NaN, NaN
20060416,001109,1296641,33.720735,-123.635861,17.0,15.186,33.032,41.088,2392.38,0.0, NaN,15.134,15.084, NaN,24.347,   NaN,-40.00,1017.33,81.11,14.36,294.2,289.3,1.9,1.5,219.7,210.4,1.8,1.4,NaN, NaN,14.0,309.1,227.2,1145146269,1145146269,2,0.8,000669,000669,309.1,33.720615,-123.635785,-0.08,NaN,NaN,15.397, NaN,NaN,270.4, NaN, NaN
20060416,001139,1296671,33.720773,-123.635818,17.2,15.194,33.035,41.098,2376.35,0.0, NaN,15.134,15.084, NaN,24.348,   NaN,-40.00,1017.27,81.24,14.38,292.6,294.4,2.0,1.5,224.6,222.5,1.9,1.4,NaN, NaN,15.0,310.8,19.7,1145146299,1145146299,2,0.8,000699,000699,310.8,33.720646,-123.635751,0.13,NaN,NaN,15.404, NaN,NaN,258.9, NaN, NaN
20060416,001209,1296700,33.720803,-123.635801,16.8,15.200,33.033,41.101,2175.75,0.0, NaN,15.130,15.081, NaN,24.346,   NaN,-40.00,1017.27,81.12,14.38,292.7,301.5,2.2,1.8,229.7,235.7,2.1,1.6,NaN, NaN,15.0,305.3,311.4,1145146329,1145146329,2,0.3,000729,000729,305.3,33.720685,-123.635725,0.09,NaN,NaN,15.410, NaN,NaN,245.8, NaN, NaN
20060416,001239,1296730,33.720835,-123.635781,16.9,15.207,33.033,41.108,1295.29,0.0, NaN,15.127,15.080, NaN,24.344,   NaN,-40.00,1017.30,80.66,14.36,297.1,305.6,2.4,2.1,233.8,241.1,2.3,2.0,NaN, NaN,16.0,302.5,28.8,1145146359,1145146359,2,0.2,000759,000759,302.5,33.720716,-123.635701,-0.05,NaN,NaN,15.417, NaN,NaN,234.6, NaN, NaN
20060416,001309,1296760,33.720868,-123.635771,17.1,15.202,33.041,41.114,1442.85,0.0, NaN,15.127,15.080, NaN,24.352,   NaN,-40.00,1017.25,80.67,14.28,302.3,307.0,2.6,2.5,238.6,243.2,2.5,2.3,NaN, NaN,15.0,298.6,24.5,1145146389,1145146389,2,0.7,000789,000789,298.6,33.720758,-123.635671,0.15,NaN,NaN,15.412, NaN,NaN,230.5, NaN, NaN
20060416,001339,1296791,33.720888,-123.635746,16.9,15.204,33.039,41.112,1397.23,0.0, NaN,15.129,15.081, NaN,24.350,   NaN,-40.00,1017.36,80.82,14.25,310.4,311.6,2.5,2.5,243.0,244.4,2.3,2.2,NaN, NaN,14.0,295.8,116.7,1145146419,1145146419,2,0.3,000819,000819,295.3,33.720781,-123.635640,-0.13,NaN,NaN,15.414, NaN,NaN,230.0, NaN, NaN
20060416,001409,1296821,33.720926,-123.635706,16.8,15.209,25.531,32.224,1104.30,0.0, NaN,15.133,15.087, NaN,18.336,   NaN,-40.00,1017.33,80.83,14.22,314.4,318.2,2.4,2.2,242.1,246.2,2.1,1.9,NaN, NaN,14.0,294.3,42.3,1145146449,1145146449,2,0.0,000849,000849,294.6,33.720821,-123.635601,0.07,NaN,NaN,15.419, NaN,NaN,225.4, NaN, NaN
20060416,001439,1296851,33.720935,-123.635676,17.1,15.208,33.049,41.127,1005.55,0.0, NaN,15.139,15.091, NaN,24.357,   NaN,-40.00,1017.27,80.86,14.15,308.9,316.0,2.4,2.0,234.1,240.5,2.2,1.7,NaN, NaN,14.0,290.1,44.6,1145146479,1145146479,2,0.6,000879,000879,290.1,33.720848,-123.635561,-0.03,NaN,NaN,15.418, NaN,NaN,210.7, NaN, NaN
20060416,001509,1296880,33.720941,-123.635650,17.3,15.207,33.049,41.127,1121.81,0.0, NaN,15.147,15.099, NaN,24.357,   NaN,-40.00,1017.27,81.02,14.17,311.6,315.3,2.6,2.2,235.1,237.5,2.4,1.9,NaN, NaN,16.0,285.6,131.9,1145146509,1145146509,2,0.5,000909,000909,285.6,33.720878,-123.635515,-0.02,NaN,NaN,15.417, NaN,NaN,197.4, NaN, NaN
20060416,001539,1296910,33.720963,-123.635598,16.8,15.211,33.049,41.130,1069.26,0.0, NaN,15.151,15.104, NaN,24.356,   NaN,-40.00,1017.27,80.80,14.09,312.7,316.1,2.7,2.5,233.1,235.7,2.5,2.2,NaN, NaN,19.0,287.0,96.6,1145146539,1145146539,2,0.4,000939,000939,287.0,33.720896,-123.635473,-0.26,NaN,NaN,15.421, NaN,NaN,195.4, NaN, NaN
20060416,001609,1296941,33.720953,-123.635553,16.9,15.213,33.048,41.131,1035.02,0.0, NaN,15.154,15.110, NaN,24.355,   NaN,-40.00,1017.25,80.99,14.09,310.9,315.9,2.6,2.5,229.9,235.0,2.4,2.2,NaN, NaN,19.0,289.7,80.8,1145146569,1145146569,2,0.4,000969,000969,289.7,33.720890,-123.635420,-0.17,NaN,NaN,15.423, NaN,NaN,195.2, NaN, NaN
20060416,001639,1296971,33.720965,-123.635498,17.2,15.216,33.046,41.131,1111.36,0.0, NaN,15.155,15.110, NaN,24.353,   NaN,-40.00,1017.31,81.23,14.09,307.7,310.9,2.5,2.5,229.9,233.3,2.3,2.3,NaN, NaN,18.0,294.0,161.7,1145146599,1145146599,2,0.5,000999,000999,294.0,33.720880,-123.635375,-0.22,NaN,NaN,15.426, NaN,NaN,195.1, NaN, NaN
20060416,001709,1297001,33.720976,-123.635440,16.9,15.216,33.047,41.133,1102.78,0.0, NaN,15.156,15.110, NaN,24.354,   NaN,-40.00,1017.19,81.52,14.09,298.7,304.5,2.5,2.5,224.6,230.5,2.3,2.3,NaN, NaN,18.0,298.0,22.2,1145146629,1145146629,2,0.4,001029,001029,298.0,33.720876,-123.635321,-0.34,NaN,NaN,15.426, NaN,NaN,189.3, NaN, NaN
20060416,001739,1297031,33.720998,-123.635423,16.9,15.211,33.050,41.131,1016.36,0.0, NaN,15.157,15.112, NaN,24.357,   NaN,-40.00,1017.30,81.51,14.09,294.8,300.9,2.4,2.3,224.0,229.8,2.3,2.1,NaN, NaN,18.0,297.1,232.4,1145146659,1145146659,2,0.5,001059,001059,297.1,33.720901,-123.635310,-0.04,NaN,NaN,15.421, NaN,NaN,174.9, NaN, NaN
20060416,001809,1297060,33.721056,-123.635423,16.9,15.204,33.053,41.129,1037.91,0.0, NaN,15.159,15.114, NaN,24.361,   NaN,-40.00,1017.35,81.34,14.04,297.2,301.5,2.5,2.2,226.6,230.2,2.4,2.1,NaN, NaN,19.0,292.3,14.5,1145146689,1145146689,2,0.7,001089,001089,292.3,33.720955,-123.635300,0.13,NaN,NaN,15.414, NaN,NaN,165.8, NaN, NaN
20060416,001839,1297090,33.721075,-123.635446,17.0,15.203,33.050,41.124,1072.64,0.0, NaN,15.161,15.114, NaN,24.359,   NaN,-40.00,1017.27,81.40,14.02,307.5,309.3,2.5,2.3,231.3,232.2,2.2,2.1,NaN, NaN,19.0,285.0,225.5,1145146719,1145146719,2,0.6,001119,001119,285.0,33.720993,-123.635305,0.21,NaN,NaN,15.413, NaN,NaN,163.9, NaN, NaN
20060416,001909,1297121,33.721113,-123.635451,16.9,15.202,33.049,41.122,1275.42,0.0, NaN,15.159,15.113, NaN,24.359,   NaN,-40.00,1017.31,81.68,14.04,316.1,319.5,2.3,2.2,232.0,235.0,2.0,1.8,NaN, NaN,20.0,281.1,25.0,1145146749,1145146749,2,0.5,001149,001149,281.1,33.721033,-123.635301,0.06,NaN,NaN,15.412, NaN,NaN,164.7, NaN, NaN
20060416,001939,1297151,33.721126,-123.635483,17.0,15.194,33.052,41.119,1225.53,0.0, NaN,15.156,15.109, NaN,24.363,   NaN,-40.00,1017.28,81.75,14.07,318.0,322.3,2.2,2.0,231.4,235.7,1.9,1.7,NaN, NaN,19.0,283.0,13.5,1145146779,1145146779,2,0.5,001179,001179,283.0,33.721048,-123.635341,0.26,NaN,NaN,15.404, NaN,NaN,164.5, NaN, NaN
20060416,002009,1297181,33.721145,-123.635548,17.0,15.197,33.047,41.115,1082.61,0.0, NaN,15.155,15.107, NaN,24.358,   NaN,-40.00,1017.28,81.58,14.10,316.4,316.8,2.3,2.2,232.4,232.5,2.0,1.9,NaN, NaN,18.0,288.1,355.4,1145146809,1145146809,2,0.8,001209,001209,288.1,33.721065,-123.635420,0.37,NaN,NaN,15.407, NaN,NaN,158.6, NaN, NaN
20060416,002039,1297210,33.721171,-123.635605,17.0,15.197,33.046,41.114,1082.36,0.0, NaN,15.153,15.107, NaN,24.357,   NaN,-40.00,1017.30,81.63,14.07,309.9,311.0,2.4,2.3,229.3,230.2,2.1,2.0,NaN, NaN,18.0,291.3,286.2,1145146839,1145146839,2,0.7,001239,001239,291.3,33.721085,-123.635486,0.50,NaN,NaN,15.407, NaN,NaN,147.5, NaN, NaN
20060416,002109,1297240,33.721191,-123.635645,17.1,15.206,33.043,41.119,1076.33,0.0, NaN,15.153,15.107, NaN,24.353,   NaN,-40.00,1017.23,81.66,14.07,300.8,302.6,2.4,2.1,224.2,225.0,2.2,2.0,NaN, NaN,19.0,294.1,214.2,1145146869,1145146869,2,0.7,001269,001269,294.1,33.721103,-123.635531,0.50,NaN,NaN,15.416, NaN,NaN,139.7, NaN, NaN
20060416,002139,1297270,33.721235,-123.635665,17.1,15.214,33.041,41.124,1065.52,0.0, NaN,15.155,15.110, NaN,24.350,   NaN,-40.00,1017.28,81.86,14.05,294.6,298.1,2.5,2.0,219.8,221.0,2.4,1.8,NaN, NaN,19.0,294.0,336.6,1145146899,1145146899,2,0.7,001299,001299,294.0,33.721143,-123.635551,0.10,NaN,NaN,15.424, NaN,NaN,141.6, NaN, NaN
20060416,002209,1297301,33.721243,-123.635698,16.9,15.207,33.049,41.126,1054.24,0.0, NaN,15.159,15.113, NaN,24.357,   NaN,-40.00,1017.33,81.88,14.06,294.1,300.1,2.5,1.9,217.5,220.4,2.3,1.7,NaN, NaN,20.0,292.3,303.6,1145146929,1145146929,2,0.4,001329,001329,292.3,33.721170,-123.635580,0.18,NaN,NaN,15.417, NaN,NaN,140.0, NaN, NaN
20060416,002239,1297331,33.721263,-123.635718,16.9,15.202,33.051,41.125,1041.37,0.0, NaN,15.161,15.114, NaN,24.360,   NaN,-40.00,1017.25,82.24,14.08,303.5,306.7,2.3,2.1,224.5,226.5,2.1,1.8,NaN, NaN,22.0,292.3,219.9,1145146959,1145146959,2,0.3,001359,001359,292.3,33.721191,-123.635591,0.28,NaN,NaN,15.412, NaN,NaN,140.1, NaN, NaN
20060416,002309,1297361,33.721298,-123.635723,17.0,15.207,33.047,41.125,1044.76,0.0, NaN,15.161,15.114, NaN,24.356,   NaN,-40.00,1017.31,82.03,14.05,310.7,311.8,2.2,2.3,233.5,235.2,2.0,2.0,NaN, NaN,22.0,293.8,208.4,1145146989,1145146989,2,0.8,001389,001389,293.8,33.721211,-123.635613,0.32,NaN,NaN,15.417, NaN,NaN,129.7, NaN, NaN
20060416,002339,1297390,33.721315,-123.635723,16.9,15.209,33.046,41.125,1063.91,0.0, NaN,15.164,15.116, NaN,24.355,   NaN,-40.00,1017.29,81.98,14.04,304.4,308.5,2.1,2.1,229.1,233.1,2.0,1.9,NaN, NaN,21.0,298.4,356.3,1145147019,1145147019,2,0.3,001419,001419,298.4,33.721216,-123.635615,0.01,NaN,NaN,15.419, NaN,NaN,125.3, NaN, NaN
20060416,002409,1297420,33.721325,-123.635711,17.0,15.211,33.055,41.138,1099.81,0.0, NaN,15.164,15.115, NaN,24.361,   NaN,-40.00,1017.25,82.06,14.06,297.1,299.7,2.0,1.8,224.2,225.9,1.9,1.7,NaN, NaN,21.0,300.8,206.5,1145147049,1145147049,2,0.5,001449,001449,300.8,33.721235,-123.635606,0.00,NaN,NaN,15.421, NaN,NaN,125.1, NaN, NaN
20060416,002439,1297451,33.721355,-123.635698,17.0,15.203,33.059,41.135,1198.70,0.0, NaN,15.163,15.114, NaN,24.366,   NaN,-40.00,1017.29,82.21,14.08,293.7,296.7,2.1,1.7,223.5,223.4,2.0,1.5,NaN, NaN,21.0,301.6,50.3,1145147079,1145147079,2,0.6,001479,001479,301.6,33.721263,-123.635600,0.06,NaN,NaN,15.413, NaN,NaN,125.2, NaN, NaN
20060416,002509,1297481,33.721386,-123.635696,17.0,15.195,33.060,41.128,1359.70,0.0, NaN,15.160,15.113, NaN,24.369,   NaN,-40.00,1017.26,82.39,14.10,293.2,298.9,2.4,1.9,224.5,227.4,2.3,1.8,NaN, NaN,21.0,301.0,40.7,1145147109,1145147109,2,0.7,001509,001509,300.6,33.721295,-123.635593,-0.01,NaN,NaN,15.405, NaN,NaN,115.9, NaN, NaN
20060416,002539,1297511,33.721416,-123.635690,17.2,15.183,33.063,41.121,1433.53,0.0, NaN,15.157,15.111, NaN,24.373,   NaN,-40.00,1017.18,82.26,14.09,293.3,298.4,2.4,2.2,225.2,230.0,2.3,2.1,NaN, NaN,21.0,299.0,32.7,1145147139,1145147139,2,0.8,001539,001539,298.8,33.721335,-123.635581,0.19,NaN,NaN,15.394, NaN,NaN,116.1, NaN, NaN
20060416,002609,1297541,33.721441,-123.635671,17.0,15.183,33.060,41.117,1447.42,0.0, NaN,15.155,15.108, NaN,24.371,   NaN,-40.00,1017.24,82.13,14.07,297.2,300.7,2.2,1.8,226.1,227.4,2.0,1.7,NaN, NaN,21.0,297.6,82.0,1145147169,1145147169,2,0.3,001569,001569,297.6,33.721360,-123.635558,0.01,NaN,NaN,15.394, NaN,NaN,115.8, NaN, NaN
20060416,002639,1297570,33.721443,-123.635640,17.1,15.187,33.052,41.113,1506.20,0.0, NaN,15.153,15.106, NaN,24.364,   NaN,-40.00,1017.26,82.17,14.12,299.3,303.1,2.2,1.7,226.4,227.0,2.0,1.5,NaN, NaN,20.0,294.8,179.4,1145147199,1145147199,2,1.3,001599,001599,294.8,33.721366,-123.635518,0.05,NaN,NaN,15.398, NaN,NaN,108.7, NaN, NaN
20060416,002709,1297600,33.721456,-123.635588,17.1,15.188,33.051,41.113,1628.65,0.0, NaN,15.151,15.104, NaN,24.363,   NaN,-40.00,1017.24,82.15,14.12,296.2,302.5,2.1,1.8,221.0,225.8,2.0,1.7,NaN, NaN,20.0,294.3,214.3,1145147229,1145147229,2,0.1,001629,001629,294.3,33.721385,-123.635476,-0.03,NaN,NaN,15.399, NaN,NaN,105.3, NaN, NaN
20060416,002739,1297631,33.721453,-123.635538,16.9,15.193,33.053,41.118,1695.62,0.0, NaN,15.151,15.103, NaN,24.363,   NaN,-40.00,1017.20,82.36,14.14,295.4,299.6,1.9,1.7,218.0,220.9,1.8,1.5,NaN, NaN,19.0,296.1,181.9,1145147259,1145147259,2,0.7,001659,001659,296.1,33.721381,-123.635428,-0.25,NaN,NaN,15.403, NaN,NaN,105.2, NaN, NaN
20060416,002809,1297661,33.721478,-123.635468,17.1,15.191,33.053,41.118,1724.31,0.0, NaN,15.150,15.097, NaN,24.364,   NaN,-40.00,1017.24,82.27,14.19,292.3,295.2,1.8,1.4,215.4,215.4,1.7,1.3,NaN, NaN,19.0,301.0,34.0,1145147289,1145147289,2,0.0,001689,001689,301.0,33.721390,-123.635375,-0.22,NaN,NaN,15.402, NaN,NaN,104.2, NaN, NaN
20060416,002839,1297691,33.721460,-123.635396,17.0,15.197,33.051,41.119,1712.62,0.0, NaN,15.150,15.101, NaN,24.361,   NaN,-40.00,1017.32,82.11,14.22,290.0,294.6,2.1,1.6,218.8,219.8,2.0,1.4,NaN, NaN,21.0,305.5,44.0,1145147319,1145147319,2,0.7,001719,001719,305.5,33.721383,-123.635310,-0.25,NaN,NaN,15.407, NaN,NaN,101.3, NaN, NaN
20060416,002909,1297720,33.721478,-123.635325,16.9,15.202,33.049,41.122,1720.95,0.0, NaN,15.151,15.102, NaN,24.358,   NaN,-40.00,1017.35,81.98,14.23,289.0,295.4,2.4,1.8,225.9,229.8,2.3,1.7,NaN, NaN,20.0,307.8,107.7,1145147349,1145147349,2,0.6,001749,001749,307.8,33.721376,-123.635246,-0.31,NaN,NaN,15.412, NaN,NaN,100.6, NaN, NaN
20060416,002939,1297750,33.721486,-123.635260,16.9,15.203,33.055,41.129,1702.90,0.0, NaN,15.151,15.104, NaN,24.362,   NaN,-40.00,1017.38,81.47,14.19,289.9,294.2,2.5,2.0,230.2,232.9,2.4,1.9,NaN, NaN,18.0,308.0,83.7,1145147379,1145147379,2,0.4,001779,001779,308.0,33.721383,-123.635185,-0.14,NaN,NaN,15.413, NaN,NaN,99.7, NaN, NaN
20060416,003009,1297781,33.721495,-123.635186,17.2,15.201,33.055,41.128,1560.47,0.0, NaN,15.151,15.104, NaN,24.364,   NaN,-40.00,1017.27,81.29,14.16,289.6,293.0,2.4,2.0,230.8,232.9,2.3,1.9,NaN, NaN,18.0,307.8,75.9,1145147409,1145147409,2,0.9,001809,001809,307.8,33.721395,-123.635106,-0.17,NaN,NaN,15.411, NaN,NaN,94.9, NaN, NaN
20060416,003039,1297811,33.721503,-123.635125,17.1,15.201,33.054,41.127,1473.58,0.0, NaN,15.153,15.107, NaN,24.363,   NaN,-40.00,1017.27,81.46,14.17,289.0,294.5,2.6,2.1,230.1,234.0,2.5,1.9,NaN, NaN,17.0,308.0,72.4,1145147439,1145147439,2,0.4,001839,001839,308.0,33.721408,-123.635038,-0.35,NaN,NaN,15.411, NaN,NaN,95.2, NaN, NaN
20060416,003109,1297841,33.721513,-123.635051,17.0,15.203,33.054,41.128,1391.16,0.0, NaN,15.155,15.109, NaN,24.362,   NaN,-40.00,1017.30,81.47,14.17,290.1,296.3,2.8,2.4,231.1,235.9,2.7,2.2,NaN, NaN,17.0,309.5,141.2,1145147469,1145147469,2,0.3,001869,001869,309.5,33.721415,-123.634971,-0.31,NaN,NaN,15.413, NaN,NaN,95.0, NaN, NaN
20060416,003139,1297871,33.721538,-123.634983,16.9,15.202,33.054,41.128,1263.32,0.0, NaN,15.156,15.110, NaN,24.362,   NaN,-40.00,1017.31,81.57,14.17,287.2,294.2,3.0,2.3,229.2,234.2,2.9,2.2,NaN, NaN,17.0,312.1,97.7,1145147499,1145147499,2,0.0,001899,001899,312.1,33.721431,-123.634916,-0.22,NaN,NaN,15.412, NaN,NaN,88.8, NaN, NaN
20060416,003209,1297900,33.721571,-123.634920,16.9,15.197,33.058,41.127,1252.74,0.0, NaN,15.157,15.112, NaN,24.367,   NaN,-40.00,1017.30,81.94,14.15,282.7,289.0,3.0,2.1,227.5,230.9,2.9,2.0,NaN, NaN,17.0,313.8,74.1,1145147529,1145147529,2,0.3,001929,001929,313.8,33.721460,-123.634850,-0.17,NaN,NaN,15.407, NaN,NaN,85.3, NaN, NaN
20060416,003239,1297930,33.721605,-123.634853,17.1,15.202,33.050,41.123,1341.33,0.0, NaN,15.159,15.113, NaN,24.359,   NaN,-40.00,1017.23,82.13,14.18,281.5,286.6,3.0,2.3,228.8,231.7,3.0,2.2,NaN, NaN,16.0,317.0,72.5,1145147559,1145147559,2,0.9,001959,001959,317.0,33.721485,-123.634790,-0.16,NaN,NaN,15.412, NaN,NaN,86.0, NaN, NaN
20060416,003309,1297961,33.721651,-123.634803,17.0,15.209,33.051,41.131,1320.42,0.0, NaN,15.160,15.114, NaN,24.358,   NaN,-40.00,1017.37,81.98,14.17,280.6,286.7,2.9,2.3,230.2,234.5,2.9,2.2,NaN, NaN,16.0,316.8,14.4,1145147589,1145147589,2,0.8,001989,001989,316.8,33.721521,-123.634741,0.02,NaN,NaN,15.419, NaN,NaN,81.9, NaN, NaN
20060416,003339,1297991,33.721721,-123.634770,17.0,15.206,33.055,41.132,1318.03,0.0, NaN,15.161,15.114, NaN,24.362,   NaN,-40.00,1017.32,82.10,14.14,283.3,290.5,2.8,2.0,231.1,235.7,2.7,1.9,NaN, NaN,16.0,309.1,41.8,1145147619,1145147619,2,1.1,002019,002019,309.1,33.721606,-123.634688,0.20,NaN,NaN,15.416, NaN,NaN,74.7, NaN, NaN
20060416,003409,1298021,33.721766,-123.634760,16.7,15.204,33.053,41.129,1520.31,0.0, NaN,15.163,15.115, NaN,24.361,   NaN,-40.00,1017.37,82.29,14.15,295.1,299.1,2.8,2.2,235.8,237.3,2.7,2.0,NaN, NaN,17.0,300.3,49.9,1145147649,1145147649,2,0.2,002049,002049,300.3,33.721671,-123.634655,0.19,NaN,NaN,15.414, NaN,NaN,74.1, NaN, NaN
20060416,003439,1298050,33.721806,-123.634708,17.2,15.207,33.051,41.129,1474.19,0.0, NaN,15.170,15.120, NaN,24.359,   NaN,-40.00,1017.32,82.18,14.20,303.2,306.2,3.0,2.6,237.8,239.6,2.8,2.4,NaN, NaN,17.0,297.0,72.7,1145147679,1145147679,2,0.4,002079,002079,297.0,33.721723,-123.634603,-0.09,NaN,NaN,15.417, NaN,NaN,75.0, NaN, NaN
20060416,003509,1298080,33.721830,-123.634663,17.0,15.220,33.045,41.135,1383.03,0.0, NaN,15.173,15.127, NaN,24.351,   NaN,-40.00,1017.26,81.97,14.17,302.6,307.7,3.1,2.8,234.6,239.2,2.9,2.6,NaN, NaN,17.0,298.6,148.7,1145147709,1145147709,2,0.5,002109,002109,298.6,33.721741,-123.634561,-0.15,NaN,NaN,15.430, NaN,NaN,74.5, NaN, NaN
20060416,003539,1298110,33.721863,-123.634590,16.9,15.230,33.048,41.147,1447.95,0.0, NaN,15.176,15.130, NaN,24.351,   NaN,-40.00,1017.29,81.73,14.16,301.5,307.9,3.0,2.8,233.1,239.2,2.8,2.5,NaN, NaN,17.0,302.1,42.7,1145147739,1145147739,2,1.1,002139,002139,302.3,33.721765,-123.634498,-0.30,NaN,NaN,15.440, NaN,NaN,74.3, NaN, NaN